Showing default

THEMIS A, 30580

Orbit data source: Space-Track

THEMIS A, 30580 is a payload satellite owned by GSFC (US) in HEO that was launched on Sat, 17 Feb 2007 UTC via a DELTA 7925-10C launch vehicle from the Air Force Eastern Test Range (AFETR). Payload-class satellites include a variety of spacecraft equipped with specific instruments for various scientific and technological missions. These include communications satellites like Starlink; space stations such as the ISS; scientific satellites like the Hubble; Earth observation satellites from companies like Planet Labs, Umbra, and HawkEye 360; GPS; miniature CubeSats for education and research; and military/defense satellites.

Loading next visibility...
Identifier
30580, 2007-004A
Orbit
HEO
Country
Flag of USUS
Related business
Manufacturer
Swales
Mission
Operational Civil Science
Bus & Motor
ATK-A100, Unknown motor
Mass
125 kg wet, 76 kg dry
Launch date (UTC)
2007-02-17 (19 years ago)
Launch vehicle
DELTA 7925-10C
Launch site
Air Force Eastern Test Range (AFETR)
Object type
Payload
Rocket body
Debris
Shape & HBR
Box + 6 Rod, 24.5 m
Radar Cross Section
0.720 m², Medium (>0.1 m² and < 1m²)

Expand to show TLE details & history
Last TLE update: 12 hours ago

TLE from 12 hours ago
0 THEMIS A
1 30580U 07004A   26120.80429248 -.00000047  00000-0  15110-1 0  9996
2 30580   7.6894 113.8518 8380885 189.9298 120.8411  0.87844750 40863
Epoch: 2026-04-30T19:18Z
TLE epoch observation values (Epoch: 2026-04-30T19:18:10.870Z)
Latitude
-0.00003°
Longitude
-34.63579°
Altitude
71,931.896 km
Speed
1.235 km/s
True Right ascension
07h 34m 37s
True Declination
0° 00' 00"
Sunlit
Object was in daylight at epoch
Visualization orbit readout
Latitude
Unknown
Longitude
Unknown
Altitude
Unknown
Speed
Unknown
Apparent Right ascension
Unknown
Apparent Declination
Unknown
Sunlit
N/A
Visualization observer readout
Local Sidereal Time
14:54:11
Azimuth
Unknown
Elevation
Unknown
Doppler factor
Unknown
Orbital elements
Apogee altitude
78,281.95 km
Perigee altitude
1,079.307 km
Semi-major axis
46,058.765 km
Eccentricity
0.83809
Inclination
7.6894°
RAAN
113.8518°
Arg. of periapsis
189.9298°
True anomaly
169.95046°
Mean anomaly
120.8411°
Eccentric anomaly
146.99653°
Mean motion
0.21957 °/min
Orbital period
1,639.56 mins
BSTAR
0.01511
Loading maneuver chart data...
Computing Atmospheric mass density...
Loading historical data...
Loading historical data...
Loading historical data...
Loading historical data...
Loading historical data...
Loading historical data...
Loading historical data...

Documentation

Showing up to 5 results
|